TJS-6

Last updated on Sun Nov 16 2025 00:03:44 GMT+0000 (Coordinated Universal Time)

1 47613U 21010A 25319.48745537 .00000050 00000+0 00000+0 0 9991 2 47613 0.0516 107.9521 0002057 214.3010 86.5445 1.00273197 17667
UTC large
Height (km)
Speed (km/s)
/
Latitude / Longitude
Inclination (degrees)
Orbital Period (minutes)
Azimuth
Elevation
Range (km)
Doppler Factor

Next 0 passes for location: London (51.5072 / 0.1276)

Sorry there are no passes over London.